This is the latest recevied weather packets stored in our database for station/object KC4MCQ-10. If no packets are shown the sender has not sent any weather packets the latest 10 day(s).
| Time | Temp. | Humidity | Pressure | Rain* | Wind** | Luminosity | Snow |
|---|---|---|---|---|---|---|---|
| 1788136722 | 27.22° C | 84% | 1018 hPa | 0 mm | 0.45 m/s, 73° | - | - |
| 1788136121 | 27.22° C | 84% | 1017.8 hPa | 0 mm | 0.89 m/s, 67° | - | - |
| 1788135517 | 27.78° C | 84% | 1017.7 hPa | 0 mm | 0.45 m/s, 72° | - | - |
| 1788134914 | 27.78° C | 83% | 1017.8 hPa | 0 mm | 0.45 m/s, 73° | - | - |
| 1788134311 | 27.78° C | 82% | 1017.5 hPa | 0 mm | 0.45 m/s, 78° | - | - |
| 1788133711 | 27.78° C | 81% | 1017.4 hPa | 0 mm | 0.45 m/s, 74° | - | - |
| 1788133110 | 28.33° C | 81% | 1017.4 hPa | 0 mm | 0.45 m/s, 80° | - | - |
| 1788132509 | 28.33° C | 80% | 1017.3 hPa | 0 mm | 0.89 m/s, 88° | - | - |
| 1788131908 | 28.89° C | 79% | 1017.4 hPa | 0 mm | 1.34 m/s, 82° | - | - |
| 1788131282 | 28.89° C | 79% | 1017.4 hPa | 0 mm | 1.79 m/s, 74° | - | - |
| 1788130677 | 28.89° C | 78% | 1017.4 hPa | 0 mm | 1.34 m/s, 58° | - | - |
| 1788128867 | 29.44° C | 77% | 1017.1 hPa | 0 mm | 0.45 m/s, 115° | - | - |
| 1788128266 | 29.44° C | 76% | 1016.9 hPa | 0 mm | 0.45 m/s, 115° | - | - |
| 1788127665 | 29.44° C | 76% | 1016.8 hPa | 0 mm | 0 m/s | - | - |
| 1788127065 | 29.44° C | 76% | 1016.6 hPa | 0 mm | 0.45 m/s, 101° | - | - |
| 1788126464 | 29.44° C | 76% | 1016.6 hPa | 0 mm | 0.45 m/s, 101° | - | - |
| 1788125864 | 30° C | 75% | 1016.4 hPa | 0 mm | 0.89 m/s, 98° | - | - |
| 1788125263 | 30° C | 75% | 1016.5 hPa | 0 mm | 1.34 m/s, 115° | - | - |
| 1788124654 | 30° C | 75% | 1016.4 hPa | 0 mm | 0.89 m/s, 90° | - | - |
| 1788124053 | 30° C | 75% | 1016.7 hPa | 0 mm | 0.89 m/s, 105° | - | - |
| 1788123452 | 30° C | 75% | 1016.5 hPa | 4.06 mm | 1.79 m/s, 142° | - | - |
| 1788122827 | 29.44° C | 76% | 1016.8 hPa | 4.06 mm | 0 m/s | - | - |
| 1788122227 | 30° C | 76% | 1016.9 hPa | 4.06 mm | 0.45 m/s, 138° | - | - |
| 1788121627 | 31.11° C | 72% | 1016.5 hPa | 4.06 mm | 4.02 m/s, 128° | - | - |
| 1788121025 | 32.22° C | 71% | 1016.4 hPa | 4.06 mm | 3.13 m/s, 99° | - | - |
* Rain latest 24 hours (hover to see other rain measurements)
** Current wind speed in m/s (hover to see current wind gust speed)